Regional Weather Roundup
Issued by NWS

Home | Current Version | Previous Version | Text Only | Print | Product List | Glossary Off
Versions: 1 2 3 4 5 6 7 8 9 10 11 12 13 14 15 16 17 18 19 20 21 22 23 24 25 26 27 28 29 30 31 32 33 34 35 36 37 38 39 40 41 42 43 44 45 46 47 48 49 50

622
ASUS45 KSLC 111110
RWRUT

UTAH REGIONAL WEATHER ROUNDUP
NATIONAL WEATHER SERVICE SALT LAKE CITY UT
400 AM MST THU FEB 11 2016

UTZ001>011-023>025-111200-

NORTHERN UTAH

CITY           SKY/WX    TMP DP  RH WIND       PRES   REMARKS
BRIGHAM CITY   CLOUDY    26  24  93 CALM      30.47S
HILL AFB       PTCLDY    24  22  90 E5        30.44R FOG     WCI  19
LOGAN          FOG       22  22 100 E3        30.46S VSB 1/2
OGDEN          CLOUDY    26  25  96 CALM      30.44S FOG
PROVO AIRPORT    N/A    N/A N/A N/A SE6       30.44F VSB<1/4
SALT LAKE CITY CLOUDY    29  27  92 CALM      30.45S FOG
VERNAL         CLOUDY    11   8  88 N6        30.40F WCI   1
WENDOVER       CLOUDY    30  25  80 CALM      30.46S
HEBER CITY     PTCLDY     5   1  85 CALM      30.42S
WEST JORDAN    CLOUDY    28  28 100 E5        30.44F WCI  23

$$

UTZ012>022-026-027-111200-

SOUTHERN/CENTRAL UTAH

CITY           SKY/WX    TMP DP  RH WIND       PRES   REMARKS
BLANDING       PTCLDY    26  19  74 N6        30.41S WCI  19
BRYCE CANYON   PTCLDY    16   6  65 W13       30.42S WCI   2
CEDAR CITY     MOCLDY    17  15  92 NE3       30.37S
DELTA          CLOUDY     9   7  92 SW3       30.43S VSB 1/2
HANKSVILLE     CLOUDY    27  25  93 CALM      30.41S
MILFORD        FOG        5   3  91 SW5       30.42R VSB 1/4 WCI  -4
MOAB/CYNLANDS  PTCLDY    26  23  88 CALM      30.38S
PRICE          PTCLDY    21  13  71 E5        30.36S WCI  15
ST GEORGE      MOSUNNY   37  21  52 S7        30.33R WCI  32
KANAB          CLEAR     28  27  93 NE3       30.37S

$$

REGIONAL REPORTS     COLORADO/ARIZONA

CITY           SKY/WX    TMP DP  RH WIND       PRES   REMARKS
CRAIG, CO      CLOUDY    -3  -8  79 CALM      30.38F
GRAND JUNCTION CLOUDY    20  19  96 E7        30.40S WCI  11
RIFLE          CLOUDY    15   9  76 S5        30.42S WCI   8
MONTROSE       CLOUDY    20  14  77 S7        30.42S WCI  11
CORTEZ         CLOUDY    19  14  81 CALM      30.35F
PAGE, AZ       PTCLDY    34  28  79 CALM      30.35R
GRAND CANYON   MOCLDY    21  16  81 NE5       30.37S WCI  15
KINGMAN        PTCLDY    35  32  88 E3        30.25S
FLAGSTAFF      PTCLDY    20  15  81 CALM      30.38S

$$

REGIONAL REPORTS    NEVADA/IDAHO/WYOMING

CITY           SKY/WX    TMP DP  RH WIND       PRES   REMARKS
LAS VEGAS, NV  PTCLDY    49  26  41 SW6       30.20S
ELY            MOCLDY    16   8  71 S15       30.39S WCI   1
ELKO           MOCLDY    13   8  81 NE6       30.42F WCI   4
POCATELLO, ID  CLOUDY    21  18  88 CALM      30.41S
BURLEY         PTCLDY    23  21  92 N3        30.38R
EVANSTON, WY   CLOUDY    26  11  52 SW9       30.38S WCI  17
ROCK SPRINGS   CLOUDY    31  14  49 SW15      30.32F WCI  20

$$




USA.gov is the U.S. government's official web portal to all federal, state and local government web resources and services.